Dewpoint
72 73 73 74 74 74 73 71 72 72 73 71 73 73 73 71 72 72 72 73 72 72 71 71 71 72 72 71 71 71 72 72 73 72 72 71 71 71 74 73 73 73 73 73 73 73 73 73 72 73 73 73 72 72 72 72 73 73 72 72 72 72 71 72 73 73 73 72 72 72 72 72 72 71 72 71 71 71 71 71 71 71 71 71 71
72 73 73 74 74 74 73 71 72 72 72 72 72 73 72 72 72 73 73 73 73 72 72 72 71 70 70 70 69 70 71 71 72 71 72 71 71 70 73 73 73 73 73 73 73 73 73 73 73 73 73 72 72 73 73 73 72 73 72 72 72 72 72 72 73 73 73 73 73 73 73 72 72 72 72 72 72 71 72 72 72 72 72 71 71
73 74 73 73 74 74 73 73 71 71 76 73 73 74 74 74 74 73 73 74 72 72 72 72 70 67 67 69 68 69 69 70 68 68 66 69 69 70 70 72 73 74 73 73 73 73 73 73 73 73 72 72 73 73 74 74 73 73 73 72 72 72 72 72 73 73 73 73 73 73 73 73 72 72 72 72 72 72 72 72 72 72 72 72 72
76 76 75 74 73 73 73 72 72 72 73 73 73 74 75 74 75 75 75 74 73 70 70 68 66 65 67 67 67 67 65 66 64 65 65 66 67 68 68 68 74 73 73 73 73 73 74 73 73 72 73 73 73 73 74 74 74 73 73 73 73 72 72 72 72 72 72 73 73 73 73 73 73 73 72 72 72 72 72 72 73 73 73 73 73
76 77 75 74 74 75 73 73 74 75 75 75 76 76 75 74 74 75 74 73 69 68 68 66 65 65 66 65 65 65 67 66 65 63 62 64 64 65 66 66 66 74 74 73 74 73 74 74 74 73 73 73 73 73 74 73 73 73 73 73 72 72 72 72 72 72 72 72 72 73 73 73 73 73 73 73 73 73 73 73 73 73 73 73 73
77 77 76 75 76 76 75 74 75 75 76 76 75 74 73 73 73 72 69 69 67 67 65 66 63 63 64 65 66 66 65 65 63 64 64 64 64 67 65 66 66 67 72 74 74 74 74 74 74 74 73 73 73 73 73 73 73 74 73 73 73 73 73 72 72 72 72 72 72 72 73 73 73 73 73 73 73 73 73 73 73 73 73 73 73
78 77 76 76 74 74 75 75 76 76 74 75 75 73 73 72 69 69 68 65 65 67 66 66 65 66 66 67 66 66 66 65 67 67 65 66 68 65 67 66 64 66 66 69 73 74 74 74 74 74 73 73 73 74 73 73 74 73 73 73 73 72 72 72 72 72 72 72 73 73 73 73 73 74 74 74 74 74 74 74 73 73 73 73 73
78 78 77 75 72 73 75 76 76 75 75 75 75 73 73 71 69 67 66 66 66 65 66 66 66 66 67 67 66 67 66 66 67 65 64 67 67 67 68 69 69 66 68 66 69 73 74 74 74 74 74 74 73 73 73 73 73 73 73 73 73 72 72 73 73 72 72 72 72 73 73 73 73 73 74 74 74 74 74 74 74 74 74 74 74
78 78 77 77 74 74 74 75 75 74 75 74 72 72 70 65 68 68 68 69 66 65 66 66 66 66 67 67 67 68 67 67 66 66 67 68 67 65 67 69 70 68 68 67 66 70 73 74 74 74 73 74 73 73 73 74 73 73 73 73 73 72 72 72 73 73 72 72 72 73 72 73 73 73 72 72 73 74 74 74 74 74 74 74 74
77 77 76 76 75 74 74 75 75 75 75 73 71 69 68 67 67 69 68 69 66 67 66 66 66 67 67 66 68 68 66 66 67 67 66 66 67 68 67 68 68 66 63 66 66 68 71 74 74 74 73 73 74 73 73 73 73 73 72 72 72 72 72 71 72 72 72 72 72 72 72 73 73 73 73 73 73 73 74 74 74 74 74 74 74
77 77 77 75 75 74 74 75 75 75 73 70 68 68 68 69 68 69 69 69 68 68 68 68 67 66 65 65 67 68 67 66 67 66 65 63 65 67 64 69 69 69 68 67 65 67 68 72 74 74 74 74 73 73 73 73 73 73 72 72 72 72 72 72 71 72 72 72 72 72 72 73 73 73 73 73 73 73 73 73 74 74 74 74 75
77 76 76 76 74 74 75 75 72 71 70 68 67 68 69 69 69 69 69 68 68 68 68 68 66 67 66 66 67 67 68 66 66 65 65 63 65 66 64 66 68 69 68 68 67 66 68 68 70 69 71 74 74 73 72 72 72 72 71 71 72 72 72 72 72 72 72 73 72 73 73 73 73 73 73 73 73 73 73 73 73 74 74 74 75
76 76 76 75 75 74 71 70 70 70 70 69 69 69 70 70 69 69 69 67 66 67 67 66 65 63 65 63 66 67 66 66 65 64 62 61 62 63 64 64 65 66 69 70 70 69 67 70 69 69 70 73 74 73 73 73 73 72 72 71 72 72 72 72 72 72 72 72 73 73 73 73 73 73 73 73 73 73 73 73 73 73 74 74 74
76 76 76 76 74 70 71 70 70 69 70 70 69 69 69 69 68 68 69 66 66 65 65 65 62 60 60 60 61 64 66 64 61 60 60 60 61 63 64 61 61 63 65 66 67 67 67 68 70 70 72 71 72 72 74 72 71 72 72 72 72 72 72 72 72 72 73 73 73 72 73 73 73 73 73 73 73 73 73 73 73 73 74 74 74
77 75 74 73 72 70 71 70 70 69 69 69 68 66 66 68 69 66 65 67 65 67 67 66 60 62 63 64 57 57 65 64 62 61 58 58 60 58 60 60 62 65 65 64 63 65 64 65 68 70 71 71 71 70 71 71 71 71 72 71 72 71 71 72 72 72 72 73 73 73 73 73 73 73 73 73 73 73 73 73 73 73 73 74 74
75 74 73 72 72 71 70 70 70 70 69 67 66 66 69 69 68 67 67 64 63 63 67 67 66 64 59 58 58 54 54 63 62 61 59 57 56 56 58 60 62 65 64 63 63 65 65 67 68 69 70 70 71 70 71 71 70 71 71 71 71 71 72 71 71 71 71 72 72 73 73 73 73 73 73 73 73 73 73 73 73 73 74 74 74
73 73 72 72 72 71 71 70 70 70 69 67 65 67 68 67 67 67 67 63 60 62 64 66 67 67 62 60 57 59 55 56 51 62 57 56 54 54 59 58 61 62 61 61 65 63 63 64 66 68 68 68 68 68 70 70 70 70 71 68 68 69 68 69 70 70 71 71 72 72 72 73 73 73 73 73 73 73 73 73 73 73 73 74 74
73 73 72 71 72 72 72 70 70 70 69 66 67 68 68 68 67 67 65 66 66 62 61 65 66 67 67 65 63 60 58 59 57 61 62 60 60 60 60 55 60 59 61 61 60 60 59 60 64 64 64 64 64 64 63 64 67 69 67 67 65 65 65 66 67 67 68 69 70 71 72 72 72 73 72 72 73 72 73 73 73 73 73 73 74
72 73 71 72 72 72 71 71 70 69 67 67 67 66 66 67 67 66 65 66 66 63 63 62 66 66 65 65 64 63 62 62 59 57 59 59 56 57 57 58 56 56 56 55 53 55 57 60 59 60 61 62 61 62 62 63 63 65 64 64 64 64 64 65 65 66 67 67 67 67 68 69 71 72 72 72 72 72 72 72 72 73 73 73 74
72 73 72 72 71 71 71 70 68 67 66 65 65 64 66 67 67 67 67 66 66 65 64 63 61 62 64 64 64 64 65 63 63 62 58 58 59 55 55 51 53 49 54 54 50 54 53 56 55 57 57 59 58 58 61 62 64 64 62 63 62 62 62 63 64 65 65 65 66 66 66 66 67 68 69 71 72 72 71 72 72 72 72 72 73
73 72 72 71 71 71 71 70 68 66 66 65 65 66 67 68 68 67 67 67 67 67 66 64 64 61 64 64 64 63 63 61 62 63 60 59 54 52 55 53 54 52 52 53 55 56 57 57 56 56 58 59 59 58 58 59 60 62 60 62 61 61 61 62 62 63 63 64 65 65 65 66 66 66 67 67 68 70 72 72 72 72 72 72 72
73 73 72 72 71 70 69 68 66 63 65 65 66 67 68 68 68 68 68 67 67 67 66 65 65 65 65 64 63 63 62 62 61 60 60 61 57 55 56 55 55 55 54 51 55 56 57 55 57 57 56 57 57 57 59 60 59 58 61 61 62 62 61 61 61 62 62 62 63 63 64 64 65 65 66 66 66 67 68 70 71 72 71 72 72
70 72 72 71 71 70 67 66 64 65 67 66 66 64 64 65 67 68 67 67 66 66 66 66 66 66 65 64 63 62 61 59 59 58 58 58 57 54 52 51 53 55 59 58 58 56 56 58 58 56 58 57 57 57 58 57 59 60 61 61 61 62 62 62 61 62 62 62 62 62 63 64 64 64 64 65 66 67 67 67 67 69 71 71 72
71 69 71 68 70 68 68 65 65 66 67 67 65 65 64 64 67 67 67 67 67 66 66 65 64 64 64 61 62 62 61 61 59 59 60 58 58 57 56 58 58 56 57 61 62 59 58 55 57 57 58 56 59 59 58 61 60 61 61 61 63 63 63 62 62 62 62 62 62 62 63 63 63 63 64 64 65 65 66 66 67 67 68 69 71
70 69 68 68 69 69 68 65 66 67 68 67 66 67 66 65 67 66 65 66 66 66 64 64 64 62 60 60 60 61 60 61 61 59 59 59 59 58 55 53 56 57 58 59 59 58 58 57 57 56 57 59 57 60 60 59 57 64 61 61 65 64 64 64 63 63 62 62 62 62 62 63 63 63 63 63 63 63 64 65 65 66 67 67 68
69 69 68 68 68 69 68 68 68 68 68 68 68 68 68 66 66 66 65 66 66 66 66 64 64 64 64 62 61 58 59 59 59 60 58 57 58 56 57 57 57 55 57 59 60 58 56 56 57 61 60 60 59 59 61 58 58 65 63 59 62 65 65 65 64 64 63 62 62 62 62 63 63 62 62 62 63 63 63 63 63 64 65 66 66
70 71 71 70 69 68 68 68 67 68 68 68 67 68 68 68 67 67 67 66 66 65 64 64 63 64 64 63 62 61 60 60 59 60 60 60 59 59 59 58 55 54 55 56 56 57 55 58 57 57 60 61 62 61 62 62 61 61 60 61 61 65 65 65 65 64 64 63 63 62 62 63 63 63 62 62 63 63 63 63 63 63 63 64 64
71 71 69 69 68 67 68 67 67 67 68 68 68 66 67 67 67 67 66 65 66 66 65 64 63 64 63 64 64 62 62 60 61 60 60 61 61 61 60 60 58 54 54 54 54 55 55 56 57 59 60 59 60 61 61 60 60 64 62 62 62 63 65 65 65 64 64 64 63 63 63 63 62 62 62 62 62 62 63 63 63 63 63 62 62
70 70 69 69 68 67 67 66 67 68 68 68 67 67 67 67 67 66 66 65 66 66 65 64 64 61 62 63 62 62 63 64 63 63 63 64 63 62 61 60 59 58 55 54 55 53 55 52 53 58 60 61 62 61 61 61 61 60 61 62 62 63 63 64 64 63 63 63 62 62 63 63 63 62 62 62 62 62 62 62 62 63 62 63 63
69 69 68 68 67 68 67 67 67 67 67 67 67 67 67 66 67 66 66 66 66 66 66 65 64 64 63 62 62 61 62 63 61 62 63 64 63 63 63 62 62 59 58 57 57 58 57 58 53 55 59 61 61 61 61 62 63 62 63 63 63 62 62 64 64 63 63 63 62 62 62 62 62 63 62 62 62 62 62 62 62 62 63 63 63
70 69 68 67 67 67 68 67 67 67 67 67 67 67 67 67 67 66 66 66 66 65 65 65 63 63 63 62 62 61 62 62 63 61 63 63 63 64 64 64 62 62 60 58 56 58 59 58 58 57 57 60 59 61 61 61 62 61 62 63 64 63 65 63 63 63 63 62 62 62 61 61 61 61 61 61 62 62 62 62 62 62 63 63 62
69 69 69 67 67 66 65 65 65 66 66 66 66 67 68 67 67 65 64 65 65 65 64 63 62 63 63 62 62 63 62 63 63 62 62 63 64 63 64 65 65 66 64 62 59 57 59 57 58 60 59 60 61 61 62 62 63 65 64 64 65 65 64 64 64 64 63 62 62 62 61 60 60 61 61 61 61 62 62 62 62 62 62 62 62
69 69 67 67 67 66 66 67 66 66 67 67 67 67 67 68 67 66 65 65 65 64 64 63 62 63 63 63 63 63 63 63 63 62 61 62 63 63 65 65 64 65 64 64 62 58 59 59 58 58 59 61 59 61 61 61 62 62 63 63 64 64 64 63 63 63 63 62 62 61 60 60 60 60 60 61 61 62 62 62 62 62 62 61 61
69 67 67 66 68 67 67 68 67 67 68 68 66 66 67 66 65 65 64 65 65 64 64 63 63 62 63 64 63 63 63 64 63 62 62 60 61 60 61 63 61 60 62 62 62 58 58 59 57 60 59 59 59 60 60 59 60 61 62 62 62 61 62 62 62 61 62 63 61 60 60 60 60 60 60 60 60 60 61 61 61 60 60 60 59
69 68 67 66 69 70 67 67 69 69 69 68 67 66 66 66 65 63 63 63 63 63 62 63 62 63 63 63 62 62 62 62 63 63 62 61 61 61 61 61 60 60 61 63 63 60 58 58 59 58 58 59 59 60 61 61 62 62 62 62 61 60 61 61 61 61 62 62 61 60 60 59 59 59 59 60 59 59 59 59 59 59 58 58 58
68 69 68 68 70 68 66 67 70 69 68 68 67 67 67 66 65 65 64 64 63 63 63 62 62 62 62 62 62 61 61 61 62 62 61 61 61 62 62 63 63 63 64 63 63 63 61 59 59 59 58 58 58 60 60 61 60 61 61 61 61 62 61 61 61 60 60 61 61 61 60 59 59 59 58 58 58 57 57 56 57 57 57 57 56
67 67 68 69 69 68 66 68 69 68 68 68 67 67 67 67 66 65 65 65 64 64 64 63 63 63 62 61 61 61 61 61 61 60 59 60 61 61 61 61 61 62 64 63 63 63 63 61 59 60 59 59 59 60 60 59 59 61 61 60 60 60 60 58 57 58 59 60 60 60 60 60 59 59 59 58 58 57 57 57 56 56 56 56 56
68 67 68 67 68 68 67 67 68 68 68 67 68 67 66 66 67 66 65 65 64 64 63 63 63 63 62 62 61 61 61 60 60 60 60 60 61 61 61 61 62 62 62 63 64 64 63 62 62 62 62 60 60 61 61 61 59 57 58 59 60 59 59 58 55 55 56 57 57 57 60 61 60 60 59 59 58 58 57 57 56 56 55 55 54
64 63 65 66 67 67 67 68 67 67 67 67 68 68 67 67 67 67 65 65 64 64 64 62 61 61 61 61 61 61 61 61 60 60 61 61 60 61 62 62 62 63 63 64 63 62 62 62 62 62 62 60 61 60 61 60 59 60 59 57 56 56 57 58 57 57 57 57 58 58 58 57 57 57 55 57 58 58 58 57 56 55 55 54 53
62 61 64 66 66 67 68 67 67 67 68 67 67 68 68 67 66 66 66 65 65 65 65 63 61 59 59 59 57 59 60 61 61 61 62 62 63 63 62 63 63 64 64 62 62 61 61 60 60 60 61 60 59 63 61 58 59 58 57 55 54 55 56 58 59 58 58 58 58 55 55 55 57 59 58 58 58 58 58 57 58 57 56 54 53
62 62 64 67 68 67 67 66 66 67 66 66 66 66 66 67 66 65 65 66 66 65 64 62 61 61 60 59 57 58 60 64 66 66 65 66 64 62 62 63 63 64 64 62 61 60 61 61 58 58 60 61 59 59 59 57 55 54 57 58 58 57 57 55 57 59 58 57 57 57 56 55 53 54 54 55 56 57 57 59 59 60 58 55 55
67 67 68 67 65 65 65 66 67 66 66 66 64 63 65 66 66 66 66 67 66 64 63 62 61 60 60 60 60 64 65 66 67 67 65 64 63 64 64 64 63 64 64 63 61 60 60 59 57 57 58 56 56 59 59 57 58 59 58 59 58 57 57 56 57 58 57 56 55 57 57 56 54 55 55 55 55 58 55 57 56 55 55 54 55
67 67 67 65 64 64 64 65 66 66 66 65 62 61 62 63 66 66 66 65 65 64 63 63 63 62 61 61 63 64 67 67 67 66 65 64 63 62 62 62 63 65 62 58 58 59 59 58 57 57 56 56 57 59 58 57 59 58 58 59 58 56 54 53 53 56 59 58 57 56 56 57 57 55 57 56 55 55 55 55 56 57 56 56 56
68 68 68 67 66 64 63 63 63 65 65 63 60 61 61 61 63 65 64 63 63 63 63 62 63 62 61 61 63 66 66 65 67 68 67 64 63 63 62 62 61 60 61 63 60 59 59 58 58 58 58 57 58 58 56 57 59 57 58 58 57 55 55 54 54 54 57 58 56 56 55 57 58 56 56 55 55 57 54 55 56 57 56 56 56
67 67 66 66 64 63 64 65 64 63 63 62 60 60 60 60 60 63 64 63 62 62 63 64 64 64 65 65 66 66 66 67 65 65 65 66 65 63 62 62 61 60 60 60 60 62 61 60 59 59 58 59 59 59 59 61 60 57 57 55 56 55 55 55 54 54 56 58 57 56 54 56 56 55 53 55 55 54 53 53 55 57 56 56 56
67 66 65 63 61 62 63 64 65 63 63 62 59 59 59 59 60 62 65 64 63 63 64 65 65 66 67 68 66 65 65 66 67 66 65 63 62 63 64 63 61 61 61 58 58 58 60 61 61 59 59 61 59 61 62 61 58 57 55 54 56 55 55 55 55 56 57 57 56 55 54 54 55 53 53 54 55 55 52 53 54 55 55 55 55
65 65 64 62 60 62 62 62 62 63 62 60 58 58 57 57 59 61 65 65 64 64 65 65 66 67 67 66 66 66 65 64 63 64 64 63 62 61 61 60 59 59 58 56 58 60 61 60 60 60 60 60 59 59 59 59 58 58 58 58 57 57 56 56 55 56 55 56 56 55 53 53 53 53 52 52 52 51 52 52 54 54 55 54 55
64 64 64 62 62 63 63 62 60 60 59 58 57 57 56 56 58 64 65 65 65 64 64 66 67 67 67 67 66 65 64 63 64 62 62 65 63 61 60 59 59 59 58 61 59 58 59 58 60 59 58 57 54 58 59 56 57 58 57 55 56 56 55 52 51 50 50 52 55 53 52 52 53 51 52 52 52 51 53 54 54 54 54 54 55
62 61 60 59 61 60 61 62 61 62 61 60 56 56 56 56 58 64 65 64 65 65 65 67 67 66 65 64 64 62 62 63 62 58 60 61 62 60 60 59 59 58 57 60 60 58 58 56 55 54 53 53 53 52 52 52 56 56 55 55 53 50 50 50 50 49 51 51 51 53 52 53 54 54 53 51 52 53 54 54 55 54 54 54 54
61 60 60 59 60 62 62 64 60 61 60 59 55 54 55 55 59 64 64 65 66 67 67 66 66 65 64 63 62 62 63 63 56 56 57 60 60 60 60 58 57 57 57 55 55 63 56 55 54 54 54 54 53 53 53 52 52 52 57 54 51 49 48 49 48 49 47 49 50 52 55 54 55 55 53 53 54 54 54 55 55 55 55 54 54
62 62 61 61 61 62 61 61 62 61 59 58 54 54 54 54 60 65 65 66 67 67 65 65 65 65 64 64 63 62 62 60 53 55 55 57 59 60 60 59 57 57 57 56 55 56 57 58 59 60 59 57 60 61 60 57 55 56 58 57 51 49 48 47 46 47 48 48 51 54 54 54 54 52 54 52 53 53 55 55 55 56 57 57 57